Weather History for Vero Beach, FL

Change the Weather History Date:

Monday, February 25, 2013

  Actual Average Record
Temperature  
Mean Temperature 77 °F 65 °F  
Max Temperature 86 °F 76 °F 86 °F (2013)
Min Temperature 68 °F 55 °F 29 °F (1989)
Degree Days  
Heating Degree Days 0 3  
Month to date heating degree days 80 89  
Since 1 July heating degree days 228 376  
Cooling Degree Days 12 3  
Month to date cooling degree days 86 67  
Year to date cooling degree days 220 128  
Growing Degree Days 28 (Base 50)    
Moisture  
Dew Point 69 °F    
Average Humidity 76    
Maximum Humidity 100    
Minimum Humidity 51    
Precipitation  
Precipitation 0.00 in 0.10 in 1.64 in (1957)
Month to date precipitation 1.03 2.33  
Year to date precipitation 2.55 4.83  
Sea Level Pressure  
Sea Level Pressure 29.87 in    
Wind  
Wind Speed 9 mph (SSE)    
Max Wind Speed 18 mph    
Max Gust Speed 23 mph    
Visibility 8 miles    
Events Fog    
T = Trace of Precipitation, MM = Missing Value Source: NWS Daily Summary

Daily Weather History Graph

Daily Weather History Graph

Search for Another Location

Airport:

Trip Planner

Search our weather history database for the weather conditions in past years. The results will help you decide how hot, cold, wet, or windy it might be!

Date:

Astronomy

Feb. 25, 2013 Rise Set
Actual Time 6:49 AM EST 6:19 PM EST
Civil Twilight 6:26 AM EST 6:43 PM EST
Nautical Twilight 5:58 AM EST 7:10 PM EST
Astronomical Twilight 5:31 AM EST 7:37 PM EST
Moon 6:25 PM EST (2/25) 6:22 AM EST (2/25)
Length of Visible Light 12h 17m
Length of Day
11h 30m
Full, 100% of the Moon is Illuminated
Feb 25
Full
Feb 25
Full
Mar 4
Last Quarter
Mar 11
New
Mar 19
First Quarter

Hourly Weather History & Observations

Time (EST) Temp. Heat Index Dew Point Humidity Pressure Visibility Wind Dir Wind Speed Gust Speed Precip Events Conditions
12:53 AM 71.1 °F - 69.1 °F 93% 29.91 in 6.0 mi NNE 4.6 mph - N/A   Clear
1:53 AM 71.1 °F - 69.1 °F 93% 29.91 in 7.0 mi NE 3.5 mph - N/A   Clear
2:53 AM 71.1 °F - 70.0 °F 96% 29.88 in 7.0 mi NE 3.5 mph - N/A   Partly Cloudy
3:23 AM 71.6 °F - 69.8 °F 94% 29.87 in 8.0 mi ENE 3.5 mph - N/A   Mostly Cloudy
3:36 AM 71.6 °F - 69.8 °F 94% 29.89 in 8.0 mi NNE 3.5 mph - N/A   Scattered Clouds
3:53 AM 71.1 °F - 70.0 °F 96% 29.87 in 7.0 mi Calm Calm - N/A   Mostly Cloudy
4:53 AM 73.0 °F - 70.0 °F 90% 29.87 in 10.0 mi East 6.9 mph - N/A   Mostly Cloudy
5:53 AM 72.0 °F - 70.0 °F 93% 29.86 in 7.0 mi East 4.6 mph - N/A   Clear
6:53 AM 71.1 °F - 70.0 °F 96% 29.88 in 5.0 mi SSE 3.5 mph - N/A Fog Clear
7:25 AM 71.6 °F - 69.8 °F 94% 29.88 in 2.0 mi SSW 5.8 mph - N/A Fog Mostly Cloudy
7:50 AM 71.6 °F - 69.8 °F 94% 29.90 in 0.2 mi SSW 8.1 mph - N/A Fog Mostly Cloudy
7:53 AM 71.1 °F - 70.0 °F 96% 29.90 in 0.2 mi SSW 8.1 mph - N/A Fog Fog
8:27 AM 71.6 °F - 69.8 °F 94% 29.91 in 1.0 mi South 6.9 mph - N/A   Overcast
8:43 AM 71.6 °F - 71.6 °F 100% 29.91 in 6.0 mi SSW 6.9 mph - N/A   Scattered Clouds
8:53 AM 73.0 °F - 71.1 °F 93% 29.91 in 9.0 mi SW 6.9 mph - N/A   Partly Cloudy
9:53 AM 79.0 °F - 66.9 °F 66% 29.91 in 10.0 mi SSW 9.2 mph - N/A   Clear
10:53 AM 82.0 °F 84.1 °F 66.0 °F 58% 29.90 in 10.0 mi SSW 12.7 mph - N/A   Clear
11:53 AM 84.0 °F 86.3 °F 66.0 °F 55% 29.88 in 10.0 mi South 8.1 mph 17.3 mph N/A   Clear
1:53 PM 82.0 °F 85.9 °F 70.0 °F 67% 29.84 in 10.0 mi ESE 11.5 mph - N/A   Mostly Cloudy
2:53 PM 80.1 °F 83.2 °F 70.0 °F 71% 29.83 in 10.0 mi SE 15.0 mph - N/A   Mostly Cloudy
3:53 PM 82.0 °F 86.3 °F 71.1 °F 69% 29.82 in 10.0 mi SSE 15.0 mph - N/A   Scattered Clouds
4:53 PM 80.1 °F 83.6 °F 71.1 °F 74% 29.81 in 10.0 mi SE 16.1 mph - N/A   Partly Cloudy
5:53 PM 77.0 °F - 66.9 °F 71% 29.81 in 10.0 mi SSE 13.8 mph 21.9 mph N/A   Clear
6:53 PM 75.0 °F - 69.1 °F 82% 29.82 in 10.0 mi SSE 11.5 mph - N/A   Partly Cloudy
7:53 PM 75.9 °F - 69.1 °F 79% 29.84 in 10.0 mi South 5.8 mph - N/A   Overcast
8:53 PM 73.9 °F - 69.1 °F 85% 29.84 in 10.0 mi South 9.2 mph - N/A   Clear
9:53 PM 73.9 °F - 69.1 °F 85% 29.85 in 10.0 mi SSE 8.1 mph - N/A   Clear
10:53 PM 73.9 °F - 69.1 °F 85% 29.85 in 10.0 mi South 11.5 mph - N/A   Clear
11:53 PM 73.0 °F - 69.1 °F 87% 29.84 in 10.0 mi South 11.5 mph - N/A   Clear